Regional Weather Roundup
Issued by NWS

Home | Current Version | Previous Version | Graphics & Text | Print | Product List | Glossary Off
Versions: 1 2 3 4 5 6 7 8 9 10 11 12 13 14 15 16 17 18 19 20 21 22 23 24 25 26 27 28 29 30 31 32 33 34 35 36 37 38 39 40 41 42 43 44 45 46 47 48 49 50

000
ASUS43 KFSD 250102
RWRSD

WEATHER ROUNDUP FOR SOUTH DAKOTA
NATIONAL WEATHER SERVICE SIOUX FALLS SD
800 PM CDT WED MAY 24 2017

NOTE: "FAIR" INDICATES FEW OR NO CLOUDS BELOW 12,000 FEET WITH NO
SIGNIFICANT WEATHER AND/OR OBSTRUCTIONS TO VISIBILITY.


SDZ001>005-009-010-012>017-250200-
NORTHWEST AND NORTH CENTRAL SOUTH DAKOTA

CITY           SKY/WX    TMP DP  RH WIND       PRES   REMARKS
BUFFALO          N/A     73  45  36 SE28G38   29.19F
FAITH            N/A     69  40  34 SE29G39   29.34F
MOBRIDGE       SUNNY     66  44  45 SE21G28   29.44F
$$

SDZ012>016-024>037-041>051-057-063-072>074-250200-
SOUTHWEST AND SOUTH CENTRAL SOUTH DAKOTA

CITY           SKY/WX    TMP DP  RH WIND       PRES   REMARKS
RAPID CTY ARPT SUNNY     75  48  38 S17       29.33F
PIERRE         SUNNY     67  41  38 SE23G31   29.44F
CUSTER         SUNNY     68  45  43 VRB6      29.48F
ELLSWORTH AFB  SUNNY     76  49  38 S20G31    29.32F
PHILIP         SUNNY     74  43  32 SE20G28   29.36F
PINE RIDGE     SUNNY     76  47  35 S24G32    29.38F
SPEARFISH      FAIR      79  46  31 SW8G17    29.29F
WINNER         FAIR      67  44  43 SE16      29.52F
$$

SDZ004>011-016>023-039-040-250200-
NORTHEAST SOUTH DAKOTA

CITY           SKY/WX    TMP DP  RH WIND       PRES   REMARKS
ABERDEEN       PTCLDY    63  41  44 SE17G28   29.56F
WATERTOWN      PTCLDY    58  45  62 SE14G20   29.62F
BROOKINGS      MOCLDY    57  46  66 SE10      29.65F
SISSETON         N/A     60  46  59 S17       29.62F
$$

SDZ017-020-022-023-036>040-048>070-250200-
SOUTHEAST SOUTH DAKOTA

CITY           SKY/WX    TMP DP  RH WIND       PRES   REMARKS
SIOUX FALLS    MOCLDY    59  46  62 SE9       29.65F
HURON          CLEAR     62  45  53 S16G25    29.58F
MITCHELL       CLEAR     63  45  51 SE16      29.60F
YANKTON          N/A     63  44  50 E10       29.64F
$$

ABBREVIATIONS USED IN REMARKS
   TC - TEMPERATURE IN CELSIUS
  WCI - WIND CHILL INDEX
   HX - HEAT INDEX
  VSB - VISIBILITY





USA.gov is the U.S. government's official web portal to all federal, state and local government web resources and services.